South St. Paul, MN

1:02 PM CST on December 16, 2017 (GMT -0600)
South Saint Paul Municipal-Fleming

Weather History for KSGS - April, 2013

Change the Weather History Date:

Tuesday, April 2, 2013

  Actual Average (KSTP) Record (KSTP)
Temperature  
Mean Temperature 29 °F -  
Max Temperature 37 °F 48 °F 70 °F (2012)
Min Temperature 21 °F 30 °F 21 °F (2014)
Degree Days  
Heating Degree Days 36    
Moisture  
Dew Point 14 °F    
Average Humidity 56    
Maximum Humidity 80    
Minimum Humidity 31    
Precipitation  
Precipitation 0.00 in - - ()
Sea Level Pressure  
Sea Level Pressure 30.30 in    
Wind  
Wind Speed 7 mph (NW)    
Max Wind Speed 13 mph    
Max Gust Speed 18 mph    
Visibility 10 miles    
Events      
Averages and records for this station are not official NWS values.
T = Trace of Precipitation, MM = Missing Value Source: NWS Daily Summary

Daily Weather History Graph

Daily Weather History Graph

Search for Another Location

Airport or City:

Trip Planner

Search our weather history database for the weather conditions in past years. The results will help you decide how hot, cold, wet, or windy it might be!

Date:

Astronomy

Apr. 02, 2013 Rise Set
Actual Time 6:50 AM CDT 7:41 PM CDT
Civil Twilight 6:20 AM CDT 8:11 PM CDT
Nautical Twilight 5:45 AM CDT 8:46 PM CDT
Astronomical Twilight 5:08 AM CDT 9:23 PM CDT
Moon 1:57 AM CDT (4/2) 11:31 AM CDT (4/2)
Length of Visible Light 13h 50m
Length of Day
12h 50m
Waning Gibbous, 55% of the Moon is Illuminated
Apr 2
Waning Gibbous
Apr 2
Last Quarter
Apr 10
New
Apr 18
First Quarter
Apr 25
Full

Hourly Weather History & Observations

Time (CDT) Temp. Windchill Dew Point Humidity Pressure Visibility Wind Dir Wind Speed Gust Speed Precip Events Conditions
12:13 AM 27.0 °F 18.7 °F 16.7 °F 65% 30.25 in 10.0 mi WNW 8.1 mph - N/A   Clear
12:32 AM 26.6 °F 20.0 °F 16.7 °F 66% 30.25 in 10.0 mi WNW 5.8 mph - N/A   Clear
12:52 AM 26.2 °F 17.8 °F 16.7 °F 67% 30.25 in 10.0 mi WNW 8.1 mph - N/A   Clear
1:13 AM 25.7 °F 17.1 °F 16.7 °F 69% 30.26 in 10.0 mi WNW 8.1 mph - N/A   Clear
1:32 AM 25.7 °F 18.0 °F 16.7 °F 69% 30.26 in 10.0 mi WNW 6.9 mph - N/A   Clear
1:52 AM 25.3 °F 17.6 °F 16.7 °F 70% 30.26 in 10.0 mi WNW 6.9 mph - N/A   Clear
2:12 AM 24.6 °F 15.1 °F 16.5 °F 71% 30.26 in 10.0 mi WNW 9.2 mph - N/A   Clear
2:32 AM 24.6 °F 18.8 °F 16.7 °F 72% 30.26 in 10.0 mi West 4.6 mph - N/A   Clear
2:52 AM 24.1 °F 16.0 °F 16.5 °F 73% 30.25 in 10.0 mi WNW 6.9 mph - N/A   Clear
3:12 AM 23.9 °F 16.8 °F 16.3 °F 73% 30.26 in 10.0 mi WNW 5.8 mph - N/A   Clear
3:33 AM 23.4 °F 16.2 °F 16.2 °F 74% 30.26 in 10.0 mi West 5.8 mph - N/A   Clear
3:52 AM 23.4 °F 16.2 °F 16.2 °F 74% 30.25 in 10.0 mi WNW 5.8 mph - N/A   Clear
4:12 AM 23.0 °F 17.0 °F 16.0 °F 74% 30.25 in 10.0 mi WNW 4.6 mph - N/A   Clear
4:33 AM 22.8 °F 15.5 °F 15.8 °F 74% 30.26 in 10.0 mi WNW 5.8 mph - N/A   Clear
4:52 AM 22.1 °F 14.7 °F 15.8 °F 77% 30.26 in 10.0 mi WNW 5.8 mph - N/A   Clear
5:12 AM 22.1 °F 15.9 °F 15.8 °F 77% 30.26 in 10.0 mi WNW 4.6 mph - N/A   Clear
5:33 AM 22.1 °F 14.7 °F 15.8 °F 77% 30.26 in 10.0 mi WNW 5.8 mph - N/A   Clear
5:52 AM 22.1 °F 14.7 °F 15.8 °F 77% 30.26 in 10.0 mi WNW 5.8 mph - N/A   Clear
6:12 AM 21.9 °F 15.7 °F 15.8 °F 77% 30.27 in 10.0 mi West 4.6 mph - N/A   Clear
6:32 AM 21.2 °F 16.4 °F 15.6 °F 79% 30.27 in 10.0 mi West 3.5 mph - N/A   Clear
6:52 AM 21.2 °F 16.4 °F 15.8 °F 80% 30.28 in 10.0 mi West 3.5 mph - N/A   Clear
7:13 AM 21.2 °F 16.4 °F 15.8 °F 80% 30.29 in 10.0 mi West 3.5 mph - N/A   Clear
7:32 AM 21.7 °F 17.0 °F 16.2 °F 79% 30.30 in 10.0 mi WNW 3.5 mph - N/A   Clear
7:52 AM 22.8 °F 18.2 °F 16.7 °F 77% 30.30 in 10.0 mi WNW 3.5 mph - N/A   Clear
8:13 AM 23.5 °F 16.4 °F 16.7 °F 75% 30.31 in 10.0 mi WNW 5.8 mph - N/A   Clear
8:32 AM 24.4 °F 16.5 °F 16.9 °F 73% 30.32 in 10.0 mi NW 6.9 mph - N/A   Clear
8:53 AM 25.7 °F 17.1 °F 17.2 °F 70% 30.32 in 10.0 mi NW 8.1 mph - N/A   Clear
9:32 AM 27.1 °F 18.2 °F 15.3 °F 61% 30.32 in 10.0 mi WNW 9.2 mph - N/A   Clear
9:53 AM 28.4 °F 20.4 °F 15.4 °F 58% 30.32 in 10.0 mi NNW 8.1 mph - N/A   Clear
10:12 AM 28.9 °F 20.4 °F 14.9 °F 56% 30.32 in 10.0 mi NNW 9.2 mph 16.1 mph N/A   Clear
10:33 AM 29.7 °F 21.3 °F 14.2 °F 53% 30.32 in 10.0 mi North 9.2 mph - N/A   Clear
10:53 AM 30.7 °F 20.9 °F 15.3 °F 53% 30.32 in 10.0 mi NNW 12.7 mph - N/A   Clear
11:12 AM 30.9 °F 21.7 °F 14.4 °F 50% 30.32 in 10.0 mi NW 11.5 mph - N/A   Clear
11:33 AM 31.6 °F 22.1 °F 13.6 °F 47% 30.32 in 10.0 mi WNW 12.7 mph 16.1 mph N/A   Clear
11:52 AM 32.0 °F 24.2 °F 13.5 °F 46% 30.32 in 10.0 mi WNW 9.2 mph 18.4 mph N/A   Clear
12:12 PM 32.9 °F 23.7 °F 13.3 °F 44% 30.32 in 10.0 mi NW 12.7 mph 16.1 mph N/A   Clear
12:32 PM 32.9 °F 24.7 °F 12.2 °F 42% 30.32 in 10.0 mi NW 10.4 mph - N/A   Clear
12:52 PM 34.0 °F 26.6 °F 12.4 °F 41% 30.31 in 10.0 mi NW 9.2 mph 16.1 mph N/A   Clear
1:13 PM 33.8 °F 27.0 °F 11.1 °F 39% 30.31 in 10.0 mi NW 8.1 mph 17.3 mph N/A   Clear
1:32 PM 34.3 °F 26.5 °F 12.2 °F 40% 30.31 in 10.0 mi NW 10.4 mph - N/A   Clear
1:53 PM 35.1 °F 27.9 °F 12.7 °F 40% 30.31 in 10.0 mi WNW 9.2 mph - N/A   Clear
2:13 PM 35.1 °F 26.9 °F 13.6 °F 41% 30.31 in 10.0 mi NW 11.5 mph 17.3 mph N/A   Clear
2:32 PM 34.9 °F 26.6 °F 12.6 °F 40% 30.31 in 10.0 mi North 11.5 mph - N/A   Scattered Clouds
2:53 PM 35.8 °F 29.4 °F 12.6 °F 38% 30.30 in 10.0 mi WNW 8.1 mph 16.1 mph N/A   Scattered Clouds
3:12 PM 35.8 °F 27.3 °F 12.9 °F 39% 30.30 in 10.0 mi NW 12.7 mph 16.1 mph N/A   Scattered Clouds
3:32 PM 36.5 °F 30.3 °F 10.2 °F 34% 30.30 in 10.0 mi NNW 8.1 mph - N/A   Clear
3:53 PM 36.7 °F 31.2 °F 10.0 °F 33% 30.30 in 10.0 mi NW 6.9 mph 17.3 mph N/A   Clear
4:12 PM 37.0 °F 29.8 °F 9.3 °F 32% 30.30 in 10.0 mi NNW 10.4 mph 16.1 mph N/A   Clear
4:33 PM 37.2 °F 30.6 °F 9.0 °F 31% 30.30 in 10.0 mi NW 9.2 mph - N/A   Clear
4:47 PM 37.2 °F 31.9 °F 9.0 °F 31% 30.30 in 10.0 mi NW 6.9 mph - N/A   Clear
5:19 PM 37.0 °F 30.4 °F 9.7 °F 32% 30.30 in 10.0 mi North 9.2 mph - N/A   Clear
5:33 PM 37.0 °F 30.4 °F 10.6 °F 34% 30.31 in 10.0 mi NW 9.2 mph 17.3 mph N/A   Clear
5:52 PM 36.7 °F 30.5 °F 9.7 °F 33% 30.31 in 10.0 mi NNW 8.1 mph - N/A   Clear
6:12 PM 36.1 °F 29.9 °F 10.9 °F 35% 30.31 in 10.0 mi NNW 8.1 mph - N/A   Clear
6:33 PM 35.8 °F 31.9 °F 10.8 °F 36% 30.31 in 10.0 mi North 4.6 mph - N/A   Clear
6:52 PM 35.6 °F 29.9 °F 11.3 °F 37% 30.32 in 10.0 mi NNW 6.9 mph - N/A   Clear
7:12 PM 35.1 °F 31.0 °F 12.2 °F 39% 30.32 in 10.0 mi North 4.6 mph - N/A   Clear
7:33 PM 34.5 °F 30.4 °F 12.6 °F 40% 30.32 in 10.0 mi NNW 4.6 mph - N/A   Clear
7:52 PM 34.0 °F 29.8 °F 12.2 °F 41% 30.32 in 10.0 mi North 4.6 mph - N/A   Clear
8:13 PM 33.4 °F 30.4 °F 12.7 °F 42% 30.32 in 10.0 mi North 3.5 mph - N/A   Clear
8:32 PM 33.3 °F 30.2 °F 12.2 °F 42% 30.32 in 10.0 mi North 3.5 mph - N/A   Clear
8:52 PM 32.9 °F - 12.2 °F 42% 30.33 in 10.0 mi Calm Calm - N/A   Clear
9:13 PM 32.0 °F - 14.2 °F 48% 30.34 in 10.0 mi Calm Calm - N/A   Clear
9:32 PM 31.3 °F - 13.8 °F 49% 30.34 in 10.0 mi Calm Calm - N/A   Clear
9:52 PM 30.9 °F - 14.9 °F 52% 30.35 in 10.0 mi Calm Calm - N/A   Clear
10:13 PM 29.3 °F - 17.6 °F 62% 30.35 in 10.0 mi Calm Calm - N/A   Clear
10:32 PM 28.8 °F 25.0 °F 17.4 °F 63% 30.35 in 10.0 mi West 3.5 mph - N/A   Clear
10:52 PM 29.1 °F - 16.3 °F 59% 30.35 in 10.0 mi Calm Calm - N/A   Clear
11:13 PM 28.0 °F - 17.4 °F 64% 30.35 in 10.0 mi Calm Calm - N/A   Clear
11:32 PM 27.5 °F - 16.5 °F 63% 30.35 in 10.0 mi Calm Calm - N/A   Clear
11:52 PM 27.5 °F - 15.8 °F 61% 30.35 in 10.0 mi Calm Calm - N/A   Clear